(338335) = 2002 WA1 = 2007 XN26

Discovered at Palomar on 2002-11-22 by NEAT.

Orbit

Orbit type: Mars-crosser

Note: WebGL enabled browser required.

epoch2023-02-25.0
epoch JD2460000.5
perihelion date2022-12-16.56030
perihelion JD2459930.06030
argument of perihelion (°)354.50861
ascending node (°)62.39957
inclination (°)21.88841
eccentricity0.1281887
perihelion distance (AU)1.6088069
Tisserand w.r.t. Jupiter3.9
ΔV w.r.t. Earth (km/sec)10.3
semimajor axis (AU)1.8453613
mean anomaly (°)27.69486
mean daily motion (°/day)0.39317120
aphelion distance (AU)2.082
period (years)2.51
P-vector [x]0.53986893
P-vector [y]0.78578668
P-vector [z]0.30179602
Q-vector [x]-0.77420517
Q-vector [y]0.32281627
Q-vector [z]0.54442265
absolute magnitude18.55
phase slope0.15
uncertainty0
referenceMPO 730654
observations used243
oppositions9
arc length (days)9163
first opposition used1997
last opposition used2022
residual rms (arc-secs)0.87
perturbers coarse indicatorM-v
perturbers precise indicator003El
first observation date used1997-11-25.0
last observation date used2022-12-27.0
computer nameMPCLINUX
Minimum Orbit Intersection Distances (in AU)
for orbit epoch: 2460000.5, reference: E2022-YK7
Mercury1.2972
Venus0.887
Earth0.62083
Mars0.10365
Jupiter3.25659
Saturn7.4588
Uranus16.5958
Neptune28.2489

Observations

249 total observations over interval: 1997 11 25.18324 – 2022 12 27.146552
These data are available for download (format description).

Date (UT) J2000 RA J2000 Dec Magn Location Ref
1997 11 25.18324 03 29 58.26 +15 46 16.6 19.4 V 691 – Steward Observatory, Kitt Peak-Spacewatch MPS 231747
1997 11 25.20502 03 29 55.65 +15 46 48.1 19.3 V 691 – Steward Observatory, Kitt Peak-Spacewatch MPS 231747
1997 11 25.22699 03 29 53.01 +15 47 19.7 19.2 V 691 – Steward Observatory, Kitt Peak-Spacewatch MPS 231747
2002 10 31.35101 03 53 16.32 +02 50 26.1 20.0   704 – Lincoln Laboratory ETS, New Mexico MPS 83082
2002 10 31.36834 03 53 14.73 +02 50 44.1 19.7   704 – Lincoln Laboratory ETS, New Mexico MPS 83082
2002 10 31.38542 03 53 13.12 +02 51 02.3 19.8   704 – Lincoln Laboratory ETS, New Mexico MPS 83082
2002 10 31.40252 03 53 11.71 +02 51 21.3 20.0   704 – Lincoln Laboratory ETS, New Mexico MPS 83082
2002 11 06.34509 03 43 42.45 +04 42 16.6 18.2 R 699 – Lowell Observatory-LONEOS MPS 70067
2002 11 06.34749 03 43 42.26 +04 42 20.4 19.4   704 – Lincoln Laboratory ETS, New Mexico MPS 70067
2002 11 06.36430 03 43 40.44 +04 42 40.4 19.2   704 – Lincoln Laboratory ETS, New Mexico MPS 70067
2002 11 06.36489 03 43 40.41 +04 42 40.4   699 – Lowell Observatory-LONEOS MPS 70067
2002 11 06.38110 03 43 38.57 +04 43 00.1 19.1   704 – Lincoln Laboratory ETS, New Mexico MPS 70067
2002 11 06.38466 03 43 38.18 +04 43 05.5   699 – Lowell Observatory-LONEOS MPS 70067
2002 11 06.40449 03 43 36.17 +04 43 28.7   699 – Lowell Observatory-LONEOS MPS 70067
2002 11 22.39386 03 13 43.91 +10 39 29.6 18.9   644 – Palomar Mountain/NEAT MPS 68322
2002 11 22.41422 03 13 41.52 +10 39 58.2 18.8   644 – Palomar Mountain/NEAT MPS 68322
2002 11 22.43490 03 13 39.14 +10 40 27.5 19.2   644 – Palomar Mountain/NEAT MPS 68322
2002 11 23.28877 03 12 03.97 +11 00 44.4 19.0 R 673 – Table Mountain Observatory, Wrightwood MPS 68322
2002 11 23.29167 03 12 03.61 +11 00 48.6   673 – Table Mountain Observatory, Wrightwood MPS 68322
2002 11 23.29456 03 12 03.28 +11 00 52.7   673 – Table Mountain Observatory, Wrightwood MPS 68322
2002 12 01.21442 02 58 10.29 +14 08 24.3 19.5   704 – Lincoln Laboratory ETS, New Mexico MPS 70067
2002 12 01.22917 02 58 08.94 +14 08 45.2 19.9   704 – Lincoln Laboratory ETS, New Mexico MPS 70067
2002 12 01.24384 02 58 07.47 +14 09 05.7 19.6   704 – Lincoln Laboratory ETS, New Mexico MPS 70067
2002 12 01.25848 02 58 05.89 +14 09 27.4 19.7   704 – Lincoln Laboratory ETS, New Mexico MPS 70067
2002 12 01.27368 02 58 04.39 +14 09 50.2 19.7   704 – Lincoln Laboratory ETS, New Mexico MPS 70067
2002 12 02.22307 02 56 34.05 +14 31 58.0 19.4   704 – Lincoln Laboratory ETS, New Mexico MPS 68322
2002 12 02.25365 02 56 31.10 +14 32 41.1 19.4   704 – Lincoln Laboratory ETS, New Mexico MPS 68322
2002 12 02.26909 02 56 29.54 +14 33 01.0 20.0   704 – Lincoln Laboratory ETS, New Mexico MPS 68322
2002 12 02.28454 02 56 27.97 +14 33 23.5 19.9   704 – Lincoln Laboratory ETS, New Mexico MPS 68322
2002 12 05.13418 02 52 12.14 +15 39 06.9 19.1   704 – Lincoln Laboratory ETS, New Mexico MPS 68322
2002 12 05.14949 02 52 10.73 +15 39 27.3 19.2   704 – Lincoln Laboratory ETS, New Mexico MPS 68322
2002 12 05.16455 02 52 09.39 +15 39 48.9 19.3   704 – Lincoln Laboratory ETS, New Mexico MPS 68322
2002 12 05.17975 02 52 07.94 +15 40 09.0 19.5   704 – Lincoln Laboratory ETS, New Mexico MPS 68322
2002 12 05.19480 02 52 06.63 +15 40 30.0 19.5   704 – Lincoln Laboratory ETS, New Mexico MPS 68322
2002 12 05.21417 02 52 04.86 +15 40 58.0 19.5   704 – Lincoln Laboratory ETS, New Mexico MPS 68322
2002 12 05.22950 02 52 03.51 +15 41 18.2 19.4   704 – Lincoln Laboratory ETS, New Mexico MPS 68322
2002 12 05.24487 02 52 02.10 +15 41 39.3 19.6   704 – Lincoln Laboratory ETS, New Mexico MPS 68322
2002 12 05.26008 02 52 00.78 +15 42 00.1 19.9   704 – Lincoln Laboratory ETS, New Mexico MPS 68322
2002 12 05.27541 02 51 59.43 +15 42 20.8 19.5   704 – Lincoln Laboratory ETS, New Mexico MPS 68322
2002 12 10.09584 02 45 45.83 +17 30 15.8 19.8   644 – Palomar Mountain/NEAT MPS 68322
2002 12 10.11723 02 45 44.25 +17 30 44.5 19.9   644 – Palomar Mountain/NEAT MPS 68322
2002 12 10.13886 02 45 42.68 +17 31 13.2 20.1   644 – Palomar Mountain/NEAT MPS 68322
2002 12 27.14969 02 34 39.51 +23 13 06.6 20.3   644 – Palomar Mountain/NEAT MPS 71654
2002 12 27.17043 02 34 39.26 +23 13 29.1 20.6   644 – Palomar Mountain/NEAT MPS 71654
2002 12 27.19173 02 34 38.97 +23 13 52.7 20.3   644 – Palomar Mountain/NEAT MPS 71654
2007 10 17.31517 03 50 53.12 -04 11 52.2 19.1 V 703 – Catalina Sky Survey MPS 231747
2007 10 17.32307 03 50 52.69 -04 11 49.0 19.8 V 703 – Catalina Sky Survey MPS 231747
2007 10 17.33096 03 50 52.26 -04 11 43.7 20.3 V 703 – Catalina Sky Survey MPS 231747
2007 10 17.33885 03 50 51.72 -04 11 38.8 19.2 V 703 – Catalina Sky Survey MPS 231747
2007 11 07.24345 03 21 02.52 +00 59 59.1 19.1 V 703 – Catalina Sky Survey MPS 231747
2007 11 07.25306 03 21 01.40 +01 00 10.1 19.0 V 703 – Catalina Sky Survey MPS 231747
2007 11 07.26270 03 21 00.36 +01 00 21.2 18.9 V 703 – Catalina Sky Survey MPS 231747
2007 11 07.27230 03 20 59.20 +01 00 32.8 19.0 V 703 – Catalina Sky Survey MPS 231747
2007 11 14.31082 03 07 47.17 +03 28 45.0 19.0 V G96 – Mt. Lemmon Survey MPS 231747
2007 11 14.31623 03 07 46.52 +03 28 52.1 19.0 V G96 – Mt. Lemmon Survey MPS 231747
2007 11 14.32170 03 07 45.87 +03 28 59.4 18.9 V G96 – Mt. Lemmon Survey MPS 231747
2007 11 14.32715 03 07 45.22 +03 29 06.6 18.9 V G96 – Mt. Lemmon Survey MPS 231747
2007 12 05.12323 02 33 30.34 +11 42 43.8 19.9 r 699 – Lowell Observatory-LONEOS MPS 231747
2007 12 05.14883 02 33 28.34 +11 43 22.0 19.6 r 699 – Lowell Observatory-LONEOS MPS 231747
2007 12 05.17443 02 33 26.36 +11 43 58.2 19.8 r 699 – Lowell Observatory-LONEOS MPS 231747
2007 12 05.19175 02 33 24.96 +11 44 24.3 19.5   704 – Lincoln Laboratory ETS, New Mexico MPS 244621
2007 12 05.19992 02 33 24.44 +11 44 37.2 19.0 V 703 – Catalina Sky Survey MPS 231747
2007 12 05.20003 02 33 24.39 +11 44 34.4 19.3 r 699 – Lowell Observatory-LONEOS MPS 231747
2007 12 05.20441 02 33 23.95 +11 44 42.0 19.8   704 – Lincoln Laboratory ETS, New Mexico MPS 244621
2007 12 05.20639 02 33 23.86 +11 44 44.2 19.5 V 703 – Catalina Sky Survey MPS 231747
2007 12 05.21288 02 33 23.36 +11 44 53.7 19.6 V 703 – Catalina Sky Survey MPS 231747
2007 12 05.21711 02 33 23.00 +11 44 59.7 20.1   704 – Lincoln Laboratory ETS, New Mexico MPS 244621
2007 12 05.21934 02 33 22.86 +11 45 02.5 19.2 V 703 – Catalina Sky Survey MPS 231747
2007 12 05.22978 02 33 22.04 +11 45 17.9 20.0   704 – Lincoln Laboratory ETS, New Mexico MPS 244621
2007 12 05.24255 02 33 20.99 +11 45 36.3 19.8   704 – Lincoln Laboratory ETS, New Mexico MPS 244621
2007 12 14.19028 02 24 44.13 +15 12 08.1 20.5 V 703 – Catalina Sky Survey MPS 231878
2007 12 14.19573 02 24 43.92 +15 12 16.7 20.3 V 703 – Catalina Sky Survey MPS 231878
2007 12 14.20115 02 24 43.48 +15 12 24.4 19.6 V 703 – Catalina Sky Survey MPS 231878
2007 12 14.20660 02 24 43.38 +15 12 31.0 20.1 V 703 – Catalina Sky Survey MPS 231878
2007 12 15.16347 02 24 05.00 +15 33 49.6 19.3 V G96 – Mt. Lemmon Survey MPS 231878
2007 12 15.17177 02 24 04.64 +15 34 00.8 19.3 V G96 – Mt. Lemmon Survey MPS 231878
2007 12 15.17994 02 24 04.28 +15 34 11.6 19.8 V G96 – Mt. Lemmon Survey MPS 231878
2007 12 15.18814 02 24 03.92 +15 34 22.4 19.8 V G96 – Mt. Lemmon Survey MPS 231878
2011 03 01.41815 14 00 41.29 +25 41 50.3 20.4 V 703 – Catalina Sky Survey MPS 371959
2011 03 01.42456 14 00 41.14 +25 41 52.7 21.6 V 703 – Catalina Sky Survey MPS 371959
2011 03 01.43098 14 00 40.82 +25 41 55.9 20.4 V 703 – Catalina Sky Survey MPS 371959
2011 03 01.44389 14 00 40.35 +25 42 02.2 20.5 V 703 – Catalina Sky Survey MPS 371959
2012 10 11.33802 03 38 06.72 -08 33 53.0 20.3 V 703 – Catalina Sky Survey MPS 434994
2012 10 11.34604 03 38 06.36 -08 33 50.6 19.9 V 703 – Catalina Sky Survey MPS 434994
2012 10 11.35396 03 38 05.89 -08 33 46.3 19.6 V 703 – Catalina Sky Survey MPS 434994
2012 10 11.36193 03 38 05.49 -08 33 43.1 20.2 V 703 – Catalina Sky Survey MPS 434994
2012 10 11.551222 03 37 55.793 -08 32 21.33 20.1 i F51 – Pan-STARRS 1, Haleakala MPS 434994
2012 10 11.563275 03 37 55.125 -08 32 16.20 19.9 i F51 – Pan-STARRS 1, Haleakala MPS 434994
2012 11 07.40154 02 58 32.59 -02 32 35.1 18.6 V 703 – Catalina Sky Survey MPS 441590
2012 11 07.40697 02 58 31.98 -02 32 29.6 18.7 V 703 – Catalina Sky Survey MPS 441590
2012 11 07.41244 02 58 31.40 -02 32 23.5 19.0 V 703 – Catalina Sky Survey MPS 441590
2012 11 07.41791 02 58 30.82 -02 32 16.9 18.8 V 703 – Catalina Sky Survey MPS 441590
2012 11 15.13121 02 44 14.57 +00 14 32.7 19.2 R H15 – ISON-NM Observatory, Mayhill MPS 443311
